This is the latest recevied weather packets stored in our database for station/object WX5KDM. If no packets are shown the sender has not sent any weather packets the latest 10 day(s).
| Time | Temp. | Humidity | Pressure | Rain* | Wind** | Luminosity | Snow |
|---|---|---|---|---|---|---|---|
| 1778279833 | 21.67° C | 58% | 1012.7 hPa | 0 mm | - | - | - |
| 1778279530 | 21.11° C | 56% | 1012.6 hPa | 0 mm | - | - | - |
| 1778279227 | 21.11° C | 56% | 1012.5 hPa | 0 mm | - | - | - |
| 1778278925 | 21.67° C | 56% | 1012.7 hPa | 0 mm | - | - | - |
| 1778278621 | 21.67° C | 57% | 1012.9 hPa | 0 mm | - | - | - |
| 1778278316 | 21.67° C | 57% | 1013.1 hPa | 0 mm | - | - | - |
| 1778278013 | 22.22° C | 56% | 1013.1 hPa | 0 mm | - | - | - |
| 1778277710 | 21.67° C | 57% | 1013 hPa | 0 mm | - | - | - |
| 1778277406 | 21.67° C | 54% | 1013.1 hPa | 0 mm | - | - | - |
| 1778277103 | 22.22° C | 54% | 1013.1 hPa | 0 mm | - | - | - |
| 1778276800 | 21.67° C | 56% | 1013.1 hPa | 0 mm | - | - | - |
| 1778276498 | 21.67° C | 54% | 1013.2 hPa | 0 mm | - | - | - |
| 1778276194 | 22.22° C | 53% | 1013.3 hPa | 0 mm | - | - | - |
| 1778275890 | 22.22° C | 52% | 1013.3 hPa | 0 mm | - | - | - |
| 1778275587 | 22.78° C | 52% | 1013.4 hPa | 0 mm | - | - | - |
| 1778275283 | 22.78° C | 52% | 1013.3 hPa | 0 mm | - | - | - |
| 1778274978 | 23.33° C | 48% | 1013.6 hPa | 0 mm | - | - | - |
| 1778274675 | 22.78° C | 49% | 1013.5 hPa | 0 mm | - | - | - |
| 1778274372 | 22.78° C | 51% | 1013.6 hPa | 0 mm | - | - | - |
| 1778274070 | 22.78° C | 50% | 1013.4 hPa | 0 mm | - | - | - |
| 1778273767 | 22.78° C | 55% | 1013.5 hPa | 0 mm | - | - | - |
| 1778273463 | 22.78° C | 52% | 1013.8 hPa | 0 mm | - | - | - |
| 1778273159 | 22.22° C | 53% | 1013.9 hPa | 0 mm | - | - | - |
| 1778272855 | 22.78° C | 52% | 1013.7 hPa | 0 mm | - | - | - |
| 1778272551 | 22.78° C | 52% | 1013.5 hPa | 0 mm | - | - | - |
* Rain latest hour (hover to see other rain measurements)
** Current wind speed in m/s (hover to see current wind gust speed)